Time,TemperatureF,DewpointF,PressureIn,WindDirection,WindDirectionDegrees,WindSpeedMPH,WindSpeedGustMPH,Humidity,HourlyPrecipIn,Conditions,Clouds,dailyrainin,SoftwareType,DateUTC
2013-07-13 00:00:00,79.7,54.6,29.78,SSW,206,0.0,11.0,42,0.00,,,0.00,Wunderground v.1.15,2013-07-13 06:00:00,
2013-07-13 00:10:00,79.7,54.6,29.78,SSW,206,1.0,1.0,42,0.00,,,0.00,Wunderground v.1.15,2013-07-13 06:10:00,
2013-07-13 00:20:00,79.6,54.5,29.78,SSW,206,0.0,0.0,42,0.00,,,0.00,Wunderground v.1.15,2013-07-13 06:20:00,
2013-07-13 00:30:00,79.4,55.0,29.79,SSW,206,0.0,0.0,43,0.00,,,0.00,Wunderground v.1.15,2013-07-13 06:30:00,
2013-07-13 00:40:00,78.9,55.8,29.79,SSW,206,1.0,1.0,45,0.00,,,0.00,Wunderground v.1.15,2013-07-13 06:40:00,
2013-07-13 00:50:00,78.4,55.9,29.79,SSW,206,0.0,0.0,46,0.00,,,0.00,Wunderground v.1.15,2013-07-13 06:50:00,
2013-07-13 01:00:00,78.3,55.2,29.80,East,98,1.0,6.0,45,0.00,,,0.00,Wunderground v.1.15,2013-07-13 07:00:00,
2013-07-13 01:10:00,77.3,54.9,29.80,SE,137,4.0,4.0,46,0.00,,,0.00,Wunderground v.1.15,2013-07-13 07:10:00,
2013-07-13 01:20:00,76.0,54.9,29.79,SSE,148,3.0,6.0,48,0.00,,,0.00,Wunderground v.1.15,2013-07-13 07:20:00,
2013-07-13 01:30:00,74.5,55.2,29.79,SSE,155,1.0,6.0,51,0.00,,,0.00,Wunderground v.1.15,2013-07-13 07:30:00,
2013-07-13 01:40:00,73.5,57.8,29.80,SE,141,1.0,6.0,58,0.00,,,0.00,Wunderground v.1.15,2013-07-13 07:40:00,
2013-07-13 01:50:00,74.3,53.3,29.79,NNE,26,9.0,9.0,48,0.22,,,0.07,Wunderground v.1.15,2013-07-13 07:50:00,
2013-07-13 02:00:00,72.5,56.9,29.77,NNW,338,2.0,2.0,58,0.07,,,0.08,Wunderground v.1.15,2013-07-13 08:00:00,
2013-07-13 02:10:00,70.9,59.0,29.77,NNE,30,2.0,2.0,66,0.00,,,0.08,Wunderground v.1.15,2013-07-13 08:10:00,
2013-07-13 02:20:00,70.8,58.0,29.78,NE,46,2.0,2.0,64,0.00,,,0.08,Wunderground v.1.15,2013-07-13 08:20:00,
2013-07-13 02:30:00,70.6,59.1,29.78,NE,46,2.0,2.0,67,0.00,,,0.08,Wunderground v.1.15,2013-07-13 08:30:00,
2013-07-13 02:40:00,71.1,57.0,29.78,NE,46,1.0,1.0,61,0.00,,,0.09,Wunderground v.1.15,2013-07-13 08:40:00,
2013-07-13 02:50:00,71.2,57.1,29.78,NE,46,0.0,6.0,61,0.00,,,0.09,Wunderground v.1.15,2013-07-13 08:50:00,
2013-07-13 03:00:00,71.2,57.1,29.77,NE,46,0.0,6.0,61,0.00,,,0.09,Wunderground v.1.15,2013-07-13 09:00:00,
2013-07-13 03:10:00,71.2,58.4,29.78,NE,46,0.0,6.0,64,0.00,,,0.09,Wunderground v.1.15,2013-07-13 09:10:00,
2013-07-13 03:20:00,70.4,61.3,29.77,NE,46,0.0,6.0,73,0.00,,,0.09,Wunderground v.1.15,2013-07-13 09:20:00,
2013-07-13 03:30:00,69.4,60.8,29.77,NE,46,0.0,6.0,74,0.00,,,0.09,Wunderground v.1.15,2013-07-13 09:30:00,
2013-07-13 03:40:00,69.4,60.4,29.77,NE,46,0.0,6.0,73,0.00,,,0.09,Wunderground v.1.15,2013-07-13 09:40:00,
2013-07-13 03:50:00,69.2,60.9,29.78,NE,46,0.0,6.0,75,0.00,,,0.09,Wunderground v.1.15,2013-07-13 09:50:00,
2013-07-13 04:00:00,69.0,60.4,29.78,NE,46,0.0,6.0,74,0.00,,,0.09,Wunderground v.1.15,2013-07-13 10:00:00,
2013-07-13 04:10:00,69.8,60.4,29.78,NE,46,0.0,6.0,72,0.00,,,0.09,Wunderground v.1.15,2013-07-13 10:10:00,
2013-07-13 04:20:00,70.5,60.2,29.78,NE,46,0.0,6.0,70,0.00,,,0.09,Wunderground v.1.15,2013-07-13 10:20:00,
2013-07-13 04:30:00,70.8,61.3,29.78,NE,46,1.0,1.0,72,0.00,,,0.09,Wunderground v.1.15,2013-07-13 10:30:00,
2013-07-13 04:40:00,70.7,60.4,29.78,ENE,59,1.0,1.0,70,0.00,,,0.09,Wunderground v.1.15,2013-07-13 10:40:00,
2013-07-13 04:50:00,70.6,59.9,29.79,East,88,1.0,6.0,69,0.00,,,0.09,Wunderground v.1.15,2013-07-13 10:50:00,
2013-07-13 05:00:00,70.4,59.7,29.79,East,90,1.0,1.0,69,0.00,,,0.09,Wunderground v.1.15,2013-07-13 11:00:00,
2013-07-13 05:10:00,70.3,60.4,29.80,East,90,1.0,1.0,71,0.00,,,0.09,Wunderground v.1.15,2013-07-13 11:10:00,
2013-07-13 05:20:00,69.7,60.7,29.80,East,90,0.0,6.0,73,0.00,,,0.09,Wunderground v.1.15,2013-07-13 11:20:00,
2013-07-13 05:30:00,69.3,61.0,29.80,East,90,0.0,6.0,75,0.00,,,0.09,Wunderground v.1.15,2013-07-13 11:30:00,
2013-07-13 05:40:00,69.1,60.5,29.79,East,90,0.0,6.0,74,0.00,,,0.09,Wunderground v.1.15,2013-07-13 11:40:00,
2013-07-13 05:50:00,69.3,60.7,29.80,East,90,0.0,6.0,74,0.00,,,0.09,Wunderground v.1.15,2013-07-13 11:50:00,
2013-07-13 06:00:00,69.4,60.8,29.80,East,90,0.0,6.0,74,0.00,,,0.09,Wunderground v.1.15,2013-07-13 12:00:00,
2013-07-13 06:10:00,69.6,60.6,29.80,East,90,0.0,6.0,73,0.00,,,0.09,Wunderground v.1.15,2013-07-13 12:10:00,
2013-07-13 06:20:00,69.8,60.4,29.80,East,90,0.0,6.0,72,0.00,,,0.09,Wunderground v.1.15,2013-07-13 12:20:00,
2013-07-13 06:30:00,70.1,59.9,29.80,East,90,0.0,6.0,70,0.00,,,0.09,Wunderground v.1.15,2013-07-13 12:30:00,
2013-07-13 06:40:00,70.7,60.4,29.80,East,90,0.0,6.0,70,0.00,,,0.09,Wunderground v.1.15,2013-07-13 12:40:00,
2013-07-13 06:50:00,71.9,60.3,29.80,East,90,0.0,6.0,67,0.00,,,0.09,Wunderground v.1.15,2013-07-13 12:50:00,
2013-07-13 07:00:00,72.8,60.8,29.80,East,90,0.0,6.0,66,0.00,,,0.09,Wunderground v.1.15,2013-07-13 13:00:00,
2013-07-13 07:10:00,73.8,60.9,29.80,East,90,0.0,6.0,64,0.00,,,0.09,Wunderground v.1.15,2013-07-13 13:10:00,
2013-07-13 07:20:00,74.4,61.0,29.81,East,90,0.0,6.0,63,0.00,,,0.09,Wunderground v.1.15,2013-07-13 13:20:00,
2013-07-13 07:30:00,75.3,60.9,29.80,East,90,0.0,6.0,61,0.00,,,0.09,Wunderground v.1.15,2013-07-13 13:30:00,
2013-07-13 07:40:00,75.3,61.4,29.81,East,90,1.0,6.0,62,0.00,,,0.09,Wunderground v.1.15,2013-07-13 13:40:00,
2013-07-13 07:50:00,75.8,60.0,29.81,East,90,0.0,6.0,58,0.00,,,0.09,Wunderground v.1.15,2013-07-13 13:50:00,
2013-07-13 08:00:00,76.4,60.0,29.81,East,90,0.0,6.0,57,0.00,,,0.09,Wunderground v.1.15,2013-07-13 14:00:00,
2013-07-13 08:10:00,76.6,60.2,29.82,East,90,1.0,6.0,57,0.00,,,0.09,Wunderground v.1.15,2013-07-13 14:10:00,
2013-07-13 08:20:00,77.2,60.3,29.82,East,90,1.0,6.0,56,0.00,,,0.09,Wunderground v.1.15,2013-07-13 14:20:00,
2013-07-13 08:30:00,77.7,60.8,29.82,East,90,1.0,6.0,56,0.00,,,0.09,Wunderground v.1.15,2013-07-13 14:30:00,
2013-07-13 08:40:00,78.1,60.6,29.82,East,90,1.0,6.0,55,0.00,,,0.09,Wunderground v.1.15,2013-07-13 14:40:00,
2013-07-13 08:50:00,78.0,58.9,29.82,North,11,3.0,3.0,52,0.00,,,0.09,Wunderground v.1.15,2013-07-13 14:50:00,
2013-07-13 09:00:00,78.1,57.9,29.82,North,11,2.0,2.0,50,0.00,,,0.09,Wunderground v.1.15,2013-07-13 15:00:00,
2013-07-13 09:10:00,79.0,59.3,29.83,North,11,1.0,1.0,51,0.00,,,0.09,Wunderground v.1.15,2013-07-13 15:10:00,
2013-07-13 09:20:00,79.6,58.2,29.83,North,11,2.0,2.0,48,0.00,,,0.09,Wunderground v.1.15,2013-07-13 15:20:00,
2013-07-13 09:30:00,80.0,58.5,29.83,North,11,2.0,2.0,48,0.00,,,0.09,Wunderground v.1.15,2013-07-13 15:30:00,
2013-07-13 09:40:00,81.1,58.4,29.83,North,11,1.0,1.0,46,0.00,,,0.09,Wunderground v.1.15,2013-07-13 15:40:00,
2013-07-13 09:50:00,81.8,57.1,29.82,North,11,1.0,1.0,43,0.00,,,0.09,Wunderground v.1.15,2013-07-13 15:50:00,
2013-07-13 10:00:00,82.6,56.5,29.82,North,11,1.0,6.0,41,0.00,,,0.09,Wunderground v.1.15,2013-07-13 16:00:00,
2013-07-13 10:10:00,83.6,56.7,29.82,North,11,1.0,6.0,40,0.00,,,0.09,Wunderground v.1.15,2013-07-13 16:10:00,
2013-07-13 10:20:00,84.7,55.5,29.82,North,11,1.0,6.0,37,0.00,,,0.09,Wunderground v.1.15,2013-07-13 16:20:00,
2013-07-13 10:30:00,83.7,56.1,29.82,North,11,1.0,6.0,39,0.00,,,0.09,Wunderground v.1.15,2013-07-13 16:30:00,
2013-07-13 10:40:00,83.7,55.4,29.82,North,11,1.0,1.0,38,0.00,,,0.09,Wunderground v.1.15,2013-07-13 16:40:00,
2013-07-13 10:50:00,83.7,53.9,29.82,North,11,1.0,6.0,36,0.00,,,0.09,Wunderground v.1.15,2013-07-13 16:50:00,
2013-07-13 11:00:00,84.0,54.2,29.82,NE,40,1.0,6.0,36,0.00,,,0.09,Wunderground v.1.15,2013-07-13 17:00:00,
2013-07-13 11:10:00,84.7,54.8,29.82,NE,34,2.0,2.0,36,0.00,,,0.09,Wunderground v.1.15,2013-07-13 17:10:00,
2013-07-13 11:20:00,84.8,54.1,29.81,ESE,107,2.0,6.0,35,0.00,,,0.09,Wunderground v.1.15,2013-07-13 17:20:00,
2013-07-13 11:30:00,84.6,53.9,29.81,ESE,123,3.0,3.0,35,0.00,,,0.09,Wunderground v.1.15,2013-07-13 17:30:00,
2013-07-13 11:40:00,85.7,54.1,29.81,SE,143,2.0,2.0,34,0.00,,,0.09,Wunderground v.1.15,2013-07-13 17:40:00,
2013-07-13 11:50:00,87.1,54.5,29.80,SE,140,2.0,2.0,33,0.00,,,0.09,Wunderground v.1.15,2013-07-13 17:50:00,
2013-07-13 12:00:00,87.5,54.9,29.80,South,180,2.0,8.0,33,0.00,,,0.09,Wunderground v.1.15,2013-07-13 18:00:00,
2013-07-13 12:10:00,86.3,54.6,29.79,SW,214,4.0,4.0,34,0.00,,,0.09,Wunderground v.1.15,2013-07-13 18:10:00,
2013-07-13 12:20:00,87.0,54.4,29.79,WSW,238,4.0,6.0,33,0.00,,,0.09,Wunderground v.1.15,2013-07-13 18:20:00,
2013-07-13 12:30:00,87.1,53.7,29.79,South,187,3.0,6.0,32,0.00,,,0.09,Wunderground v.1.15,2013-07-13 18:30:00,
2013-07-13 12:40:00,87.2,53.7,29.79,SW,220,4.0,4.0,32,0.00,,,0.09,Wunderground v.1.15,2013-07-13 18:40:00,
2013-07-13 12:50:00,87.8,55.1,29.78,South,175,2.0,8.0,33,0.00,,,0.09,Wunderground v.1.15,2013-07-13 18:50:00,
2013-07-13 13:00:00,87.8,54.3,29.78,SSE,167,4.0,4.0,32,0.00,,,0.09,Wunderground v.1.15,2013-07-13 19:00:00,
2013-07-13 13:10:00,86.9,54.3,29.78,SSW,198,4.0,4.0,33,0.00,,,0.09,Wunderground v.1.15,2013-07-13 19:10:00,
2013-07-13 13:20:00,87.1,54.5,29.77,SSE,160,4.0,4.0,33,0.00,,,0.09,Wunderground v.1.15,2013-07-13 19:20:00,
2013-07-13 13:30:00,86.7,54.2,29.77,South,189,5.0,5.0,33,0.00,,,0.09,Wunderground v.1.15,2013-07-13 19:30:00,
2013-07-13 13:40:00,88.0,54.4,29.77,South,169,3.0,6.0,32,0.00,,,0.09,Wunderground v.1.15,2013-07-13 19:40:00,
2013-07-13 13:50:00,88.5,53.1,29.76,SSE,168,2.0,2.0,30,0.00,,,0.09,Wunderground v.1.15,2013-07-13 19:50:00,
2013-07-13 14:00:00,89.3,53.8,29.76,South,170,4.0,4.0,30,0.00,,,0.09,Wunderground v.1.15,2013-07-13 20:00:00,
2013-07-13 14:10:00,89.9,55.2,29.75,SE,132,3.0,3.0,31,0.00,,,0.09,Wunderground v.1.15,2013-07-13 20:10:00,
2013-07-13 14:20:00,90.5,54.8,29.75,ESE,103,2.0,6.0,30,0.00,,,0.09,Wunderground v.1.15,2013-07-13 20:20:00,
2013-07-13 14:30:00,90.9,54.2,29.74,SE,132,2.0,2.0,29,0.00,,,0.09,Wunderground v.1.15,2013-07-13 20:30:00,
2013-07-13 14:40:00,91.1,54.4,29.74,SSE,148,3.0,6.0,29,0.00,,,0.09,Wunderground v.1.15,2013-07-13 20:40:00,
2013-07-13 14:50:00,90.9,53.3,29.73,SSW,192,4.0,4.0,28,0.00,,,0.09,Wunderground v.1.15,2013-07-13 20:50:00,
2013-07-13 15:00:00,91.5,52.8,29.73,SSW,207,1.0,1.0,27,0.00,,,0.09,Wunderground v.1.15,2013-07-13 21:00:00,
2013-07-13 15:10:00,92.8,53.9,29.72,SSW,207,1.0,1.0,27,0.00,,,0.09,Wunderground v.1.15,2013-07-13 21:10:00,
2013-07-13 15:20:00,93.7,54.7,29.72,SE,130,1.0,6.0,27,0.00,,,0.09,Wunderground v.1.15,2013-07-13 21:20:00,
2013-07-13 15:30:00,93.5,53.5,29.72,ESE,120,2.0,2.0,26,0.00,,,0.09,Wunderground v.1.15,2013-07-13 21:30:00,
2013-07-13 15:40:00,93.3,52.2,29.71,SSW,209,2.0,6.0,25,0.00,,,0.09,Wunderground v.1.15,2013-07-13 21:40:00,
2013-07-13 15:50:00,93.2,49.9,29.71,WSW,243,6.0,7.0,23,0.00,,,0.09,Wunderground v.1.15,2013-07-13 21:50:00,
2013-07-13 16:00:00,93.4,48.9,29.70,WSW,237,6.0,6.0,22,0.00,,,0.09,Wunderground v.1.15,2013-07-13 22:00:00,
2013-07-13 16:10:00,92.8,49.6,29.71,SSW,205,6.0,9.0,23,0.00,,,0.09,Wunderground v.1.15,2013-07-13 22:10:00,
2013-07-13 16:20:00,93.3,50.0,29.70,South,184,3.0,6.0,23,0.00,,,0.09,Wunderground v.1.15,2013-07-13 22:20:00,
2013-07-13 16:30:00,94.0,49.4,29.70,SW,232,5.0,5.0,22,0.00,,,0.09,Wunderground v.1.15,2013-07-13 22:30:00,
2013-07-13 16:40:00,94.0,49.4,29.69,SSW,210,3.0,6.0,22,0.00,,,0.09,Wunderground v.1.15,2013-07-13 22:40:00,
2013-07-13 16:50:00,93.2,48.7,29.69,South,186,4.0,4.0,22,0.00,,,0.09,Wunderground v.1.15,2013-07-13 22:50:00,
2013-07-13 17:00:00,92.8,47.1,29.69,SSE,157,3.0,3.0,21,0.00,,,0.09,Wunderground v.1.15,2013-07-13 23:00:00,
2013-07-13 17:10:00,93.4,46.3,29.69,South,181,1.0,6.0,20,0.00,,,0.09,Wunderground v.1.15,2013-07-13 23:10:00,
2013-07-13 17:20:00,94.3,47.1,29.69,South,188,2.0,2.0,20,0.00,,,0.09,Wunderground v.1.15,2013-07-13 23:20:00,
2013-07-13 17:30:00,95.1,47.7,29.68,SSE,150,1.0,6.0,20,0.00,,,0.09,Wunderground v.1.15,2013-07-13 23:30:00,
2013-07-13 17:40:00,94.4,47.1,29.69,SSE,150,2.0,6.0,20,0.00,,,0.09,Wunderground v.1.15,2013-07-13 23:40:00,
2013-07-13 17:50:00,91.6,50.8,29.68,SE,134,6.0,6.0,25,0.00,,,0.09,Wunderground v.1.15,2013-07-13 23:50:00,
2013-07-13 18:00:00,91.1,50.4,29.68,SSE,160,5.0,6.0,25,0.00,,,0.09,Wunderground v.1.15,2013-07-14 00:00:00,
2013-07-13 18:10:00,90.7,50.0,29.68,SE,129,5.0,5.0,25,0.00,,,0.09,Wunderground v.1.15,2013-07-14 00:10:00,
2013-07-13 18:20:00,90.5,49.9,29.68,SSE,148,4.0,4.0,25,0.00,,,0.09,Wunderground v.1.15,2013-07-14 00:20:00,
2013-07-13 18:30:00,90.2,51.7,29.69,WSW,240,4.0,4.0,27,0.00,,,0.09,Wunderground v.1.15,2013-07-14 00:30:00,
2013-07-13 18:40:00,89.0,50.7,29.69,WSW,240,5.0,8.0,27,0.00,,,0.09,Wunderground v.1.15,2013-07-14 00:40:00,
2013-07-13 18:50:00,89.5,52.1,29.69,West,272,4.0,4.0,28,0.00,,,0.09,Wunderground v.1.15,2013-07-14 00:50:00,
2013-07-13 19:00:00,89.5,51.1,29.69,West,259,3.0,6.0,27,0.00,,,0.09,Wunderground v.1.15,2013-07-14 01:00:00,
2013-07-13 19:10:00,89.1,50.8,29.69,West,277,2.0,6.0,27,0.00,,,0.09,Wunderground v.1.15,2013-07-14 01:10:00,
2013-07-13 19:20:00,88.1,50.9,29.69,NW,317,4.0,6.0,28,0.00,,,0.09,Wunderground v.1.15,2013-07-14 01:20:00,
2013-07-13 19:30:00,87.7,50.6,29.70,WNW,293,2.0,6.0,28,0.00,,,0.09,Wunderground v.1.15,2013-07-14 01:30:00,
2013-07-13 19:40:00,87.5,50.4,29.70,NW,305,2.0,6.0,28,0.00,,,0.09,Wunderground v.1.15,2013-07-14 01:40:00,
2013-07-13 19:50:00,85.9,54.3,29.72,NW,326,7.0,7.0,34,0.00,,,0.09,Wunderground v.1.15,2013-07-14 01:50:00,
2013-07-13 20:00:00,84.0,54.9,29.72,NNW,342,7.0,7.0,37,0.00,,,0.09,Wunderground v.1.15,2013-07-14 02:00:00,
2013-07-13 20:10:00,83.1,54.1,29.73,NW,317,6.0,6.0,37,0.00,,,0.09,Wunderground v.1.15,2013-07-14 02:10:00,
2013-07-13 20:20:00,82.5,54.3,29.73,North,355,6.0,6.0,38,0.00,,,0.09,Wunderground v.1.15,2013-07-14 02:20:00,
2013-07-13 20:30:00,82.2,54.1,29.73,NNE,13,6.0,7.0,38,0.00,,,0.09,Wunderground v.1.15,2013-07-14 02:30:00,
2013-07-13 20:40:00,82.0,55.3,29.73,NNW,345,5.0,6.0,40,0.00,,,0.09,Wunderground v.1.15,2013-07-14 02:40:00,
2013-07-13 20:50:00,81.8,55.1,29.73,North,5,6.0,9.0,40,0.00,,,0.09,Wunderground v.1.15,2013-07-14 02:50:00,
2013-07-13 21:00:00,82.0,54.6,29.73,NW,324,5.0,5.0,39,0.00,,,0.09,Wunderground v.1.15,2013-07-14 03:00:00,
2013-07-13 21:10:00,82.1,53.2,29.74,NNW,331,4.0,6.0,37,0.00,,,0.09,Wunderground v.1.15,2013-07-14 03:10:00,
2013-07-13 21:20:00,82.3,52.7,29.75,North,360,7.0,7.0,36,0.00,,,0.09,Wunderground v.1.15,2013-07-14 03:20:00,
2013-07-13 21:30:00,82.3,53.4,29.75,NNE,13,7.0,10.0,37,0.00,,,0.09,Wunderground v.1.15,2013-07-14 03:30:00,
2013-07-13 21:40:00,82.0,53.9,29.75,NNW,348,5.0,8.0,38,0.00,,,0.09,Wunderground v.1.15,2013-07-14 03:40:00,
2013-07-13 21:50:00,81.6,54.2,29.75,NNW,331,5.0,5.0,39,0.00,,,0.09,Wunderground v.1.15,2013-07-14 03:50:00,
2013-07-13 22:00:00,82.2,52.6,29.75,North,355,5.0,6.0,36,0.00,,,0.09,Wunderground v.1.15,2013-07-14 04:00:00,
2013-07-13 22:10:00,83.1,51.8,29.75,NNE,12,7.0,8.0,34,0.00,,,0.09,Wunderground v.1.15,2013-07-14 04:10:00,
2013-07-13 22:20:00,83.9,50.9,29.76,NNE,23,7.0,7.0,32,0.00,,,0.09,Wunderground v.1.15,2013-07-14 04:20:00,
2013-07-13 22:30:00,84.1,51.1,29.77,NE,34,5.0,5.0,32,0.00,,,0.09,Wunderground v.1.15,2013-07-14 04:30:00,
2013-07-13 22:40:00,81.9,55.2,29.79,South,175,6.0,10.0,40,0.00,,,0.09,Wunderground v.1.15,2013-07-14 04:40:00,
2013-07-13 22:50:00,80.0,56.1,29.79,SSE,155,9.0,9.0,44,0.00,,,0.09,Wunderground v.1.15,2013-07-14 04:50:00,
2013-07-13 23:00:00,77.3,57.8,29.80,SE,130,10.0,10.0,51,0.00,,,0.09,Wunderground v.1.15,2013-07-14 05:00:00,
2013-07-13 23:10:00,75.4,58.6,29.80,SE,143,9.0,9.0,56,0.00,,,0.09,Wunderground v.1.15,2013-07-14 05:10:00,
2013-07-13 23:20:00,75.1,58.3,29.80,SSE,152,8.0,8.0,56,0.00,,,0.09,Wunderground v.1.15,2013-07-14 05:20:00,
2013-07-13 23:30:00,75.7,57.4,29.80,SE,132,6.0,13.0,53,0.00,,,0.09,Wunderground v.1.15,2013-07-14 05:30:00,
2013-07-13 23:40:00,76.3,55.2,29.80,ESE,111,8.0,8.0,48,0.00,,,0.09,Wunderground v.1.15,2013-07-14 05:40:00,
2013-07-13 23:50:00,75.7,55.2,29.80,SE,126,7.0,7.0,49,0.00,,,0.09,Wunderground v.1.15,2013-07-14 05:50:00,